Regional Weather Roundup
Issued by NWS Newport/Morehead, NC

Current Version | Previous Version | Graphics & Text | Print | Product List | Glossary Off
Versions: 1 2 3 4 5 6 7 8 9 10 11 12 13 14 15 16 17 18 19 20 21 22 23 24 25 26 27 28 29 30 31 32 33 34 35 36 37 38 39 40 41 42 43 44 45 46 47 48 49 50

000
ASUS42 KMHX 121013
RWRMHX
WEATHER ROUNDUP FOR EASTERN NORTH CAROLINA
NATIONAL WEATHER SERVICE NEWPORT/MOREHEAD CITY NC
500 AM EST TUE DEC 12 2017

NOTE: "FAIR" INDICATES FEW OR NO CLOUDS BELOW 12,000 FEET
WITH NO SIGNIFICANT WEATHER AND/OR OBSTRUCTIONS TO VISIBILITY

NCZ015>017-031-032-045>047-102-103-121100-
NORTH COAST

CITY           SKY/WX    TMP DP  RH WIND       PRES   REMARKS
EDENTON        CLEAR     42  36  78 S8        29.81F
ELIZABETH CITY CLOUDY    41  37  86 S6        29.80F
KITTY HAWK     SUNNY     42  36  79 CALM      29.81F
MANTEO         CLEAR     43  35  74 SW10      29.83F

$$

NCZ045>047-081-094-103-104-121100-
CENTRAL COAST

CITY           SKY/WX    TMP DP  RH WIND       PRES   REMARKS
FRISCO         CLEAR     51  42  71 SW12G20   29.85F

$$

NCZ095-097-098-100-101-121100-
SOUTHERN COAST

CITY           SKY/WX    TMP DP  RH WIND       PRES   REMARKS
BEAUFORT       CLEAR     54  44  69 SW15      29.85F
CEDAR ISLAND   NOT AVBL
JACKSONVILLE   CLEAR     47  39  74 SW7       29.84F
PINEY ISLAND     N/A    N/A N/A N/A S7        29.84F
WILMINGTON     CLEAR     49  40  71 SW9       29.85F


$$

NCZ011>013-027>030-043-044-078>080-089-090>093-098-121100-
COASTAL PLAIN

CITY           SKY/WX    TMP DP  RH WIND       PRES   REMARKS
AHOSKIE        PTCLDY    35  31  84 S5        29.78F
CLINTON        CLEAR     41  37  84 S5        29.82F
ELIZABETHTOWN  NOT AVBL
GOLDSBORO      CLEAR     41  34  75 S5        29.78F
GREENVILLE     CLEAR     41  34  75 SW9       29.82F
HAVELOCK       CLEAR     36  35  96 S6        29.85F
KENANSVILLE    CLEAR     37  34  87 CALM      29.82F
KINSTON        CLEAR     40  35  81 S8        29.81F
NEW BERN       CLEAR     42  38  85 SW9       29.84F
RICHLANDS      NOT AVBL
ROCKY MOUNT    CLOUDY    40  34  79 S8        29.77F
WASHINGTON     CLEAR     39  33  79 S5        29.81F
WHITEVILLE     CLEAR     42  36  81 SW6       29.84F

$$

AMZ130-135-150-152-154-156-158-170-250-252-270-ANZ085-086-088-633-658-670-121100-
MARINE OBSERVATIONS

STATION/POSITION TIME  TEMP    WIND        PRES    WAVE   SWELL
                       AIR SEA DIR/SP/G            HT/PER HT/PER
                 (UTC) (F)     (DEG/KT/KT) (MB)    (FT/S) (FT/S)
CHESAPEAKE LIGHT NOT AVBL
64 E VA BEACH    0950   55 60  230/ 16/ 21 1009.3    3/ 8   2/ 8
DUCK             0948   45 55  210/ 10/ 13 1009.0
2 E DUCK         0930      54                N/A     1/ 9
OREGON INLET     0942   47 46  220/ 11/ 13 1010.1
13E OREGON INLT  0948      56                N/A     2/ 8   2/ 8
HATTERAS CG      0948   51 53  230/ 11/ 16 1010.5
DIAMOND BUOY     0950   60 75  250/ 19/ 25 1010.9    3/ 9   2/ 9
CAPE LOOKOUT     1000          230/ 12/ 18 1011.1
BEAUFORT LAB     0948   55 53  230/  5/ 12 1010.7
30 SE NEW RVR IN 0908   60 68  230/ 19/ 23 1011.5
30 SE NEW RVR IN 0930      67                N/A     5/ 5
27 SE WRIGHTSVLE 0908   60 65  230/ 23/ 31 1012.5
5 SE WRIGHTSVLE  NOT AVBL
225 S CAPE HAT   0950   68 76  230/ 19/ 23 1013.7    5/ 6   2/ 8
41 SE CHARLESTON 0950      74  250/ 23/ 29 1012.7    7/ 6   2/ 9

$$




USA.gov is the U.S. government's official web portal to all federal, state and local government web resources and services.